Time,TemperatureF,DewpointF,PressureIn,WindDirection,WindDirectionDegrees,WindSpeedMPH,WindSpeedGustMPH,Humidity,HourlyPrecipIn,Conditions,Clouds,dailyrainin,SoftwareType,DateUTC
2013-01-13 00:02:00,69.8,65.5,30.07,SSE,164,1.0,8.0,86,0.00,,,0.04,meteohub,2013-01-13 05:02:00,
2013-01-13 00:03:00,69.8,65.5,30.07,South,172,3.0,8.0,86,0.00,,,0.04,meteohub,2013-01-13 05:03:00,
2013-01-13 00:04:00,70.0,65.7,30.07,SSE,164,3.0,8.0,86,0.00,,,0.04,meteohub,2013-01-13 05:04:00,
2013-01-13 00:06:00,70.0,65.7,30.07,SE,139,4.0,8.0,86,0.00,,,0.00,meteohub,2013-01-13 05:06:00,
2013-01-13 00:11:00,70.0,65.3,30.07,SE,134,2.0,8.0,85,0.00,,,0.00,meteohub,2013-01-13 05:11:00,
2013-01-13 00:17:00,69.8,65.1,30.07,SSE,153,1.0,8.0,85,0.00,,,0.00,meteohub,2013-01-13 05:17:00,
2013-01-13 00:22:00,69.8,65.1,30.07,SE,132,1.0,7.0,85,0.00,,,0.00,meteohub,2013-01-13 05:22:00,
2013-01-13 00:27:00,70.0,65.3,30.07,South,170,3.0,7.0,85,0.00,,,0.00,meteohub,2013-01-13 05:27:00,
2013-01-13 00:32:00,70.2,65.1,30.07,SSE,156,7.0,7.0,84,0.00,,,0.00,meteohub,2013-01-13 05:32:00,
2013-01-13 00:37:00,70.3,65.3,30.07,SE,139,6.0,8.0,84,0.00,,,0.00,meteohub,2013-01-13 05:37:00,
2013-01-13 00:42:00,70.3,64.9,30.07,SSW,203,3.0,8.0,83,0.00,,,0.00,meteohub,2013-01-13 05:42:00,
2013-01-13 00:47:00,70.5,65.1,30.07,SE,131,6.0,9.0,83,0.00,,,0.00,meteohub,2013-01-13 05:47:00,
2013-01-13 00:52:00,70.7,65.3,30.07,ESE,115,5.0,10.0,83,0.00,,,0.00,meteohub,2013-01-13 05:52:00,
2013-01-13 00:58:00,70.5,65.1,30.07,SSE,154,4.0,10.0,83,0.00,,,0.00,meteohub,2013-01-13 05:58:00,
2013-01-13 01:03:00,70.5,64.8,30.07,ESE,121,8.0,10.0,82,0.00,,,0.00,meteohub,2013-01-13 06:03:00,
2013-01-13 01:08:00,70.5,64.8,30.07,SE,128,3.0,13.0,82,0.00,,,0.00,meteohub,2013-01-13 06:08:00,
2013-01-13 01:13:00,70.5,65.1,30.07,SSW,192,5.0,13.0,83,0.00,,,0.00,meteohub,2013-01-13 06:13:00,
2013-01-13 01:18:00,70.3,64.9,30.07,SE,142,2.0,13.0,83,0.00,,,0.00,meteohub,2013-01-13 06:18:00,
2013-01-13 01:23:00,70.3,64.9,30.07,ESE,117,3.0,13.0,83,0.00,,,0.00,meteohub,2013-01-13 06:23:00,
2013-01-13 01:28:00,70.2,64.8,30.07,South,169,2.0,9.0,83,0.00,,,0.00,meteohub,2013-01-13 06:28:00,
2013-01-13 01:33:00,70.2,65.1,30.07,SSE,148,2.0,9.0,84,0.00,,,0.00,meteohub,2013-01-13 06:33:00,
2013-01-13 01:38:00,70.0,64.9,30.07,ESE,120,4.0,9.0,84,0.00,,,0.00,meteohub,2013-01-13 06:38:00,
2013-01-13 01:43:00,70.0,64.9,30.07,SE,143,4.0,9.0,84,0.00,,,0.00,meteohub,2013-01-13 06:43:00,
2013-01-13 01:48:00,69.8,64.8,30.07,ESE,119,4.0,9.0,84,0.00,,,0.00,meteohub,2013-01-13 06:48:00,
2013-01-13 01:53:00,69.6,64.6,30.07,ESE,113,2.0,9.0,84,0.00,,,0.00,meteohub,2013-01-13 06:53:00,
2013-01-13 01:58:00,69.6,64.9,30.07,SE,133,4.0,8.0,85,0.00,,,0.00,meteohub,2013-01-13 06:58:00,
2013-01-13 02:03:00,69.6,64.9,30.07,ESE,113,5.0,8.0,85,0.00,,,0.00,meteohub,2013-01-13 07:03:00,
2013-01-13 02:09:00,69.6,64.9,30.07,ESE,122,4.0,8.0,85,0.00,,,0.00,meteohub,2013-01-13 07:09:00,
2013-01-13 02:14:00,69.6,64.9,30.07,ESE,105,4.0,9.0,85,0.00,,,0.00,meteohub,2013-01-13 07:14:00,
2013-01-13 02:19:00,69.6,64.9,30.07,South,180,3.0,9.0,85,0.00,,,0.00,meteohub,2013-01-13 07:19:00,
2013-01-13 02:24:00,69.6,64.9,30.07,ESE,111,2.0,8.0,85,0.00,,,0.00,meteohub,2013-01-13 07:24:00,
2013-01-13 02:29:00,69.8,65.1,30.07,SE,127,4.0,10.0,85,0.00,,,0.00,meteohub,2013-01-13 07:29:00,
2013-01-13 02:34:00,69.8,64.8,30.07,SE,133,3.0,10.0,84,0.00,,,0.00,meteohub,2013-01-13 07:34:00,
2013-01-13 02:39:00,69.8,64.8,30.07,SSE,154,5.0,10.0,84,0.00,,,0.00,meteohub,2013-01-13 07:39:00,
2013-01-13 02:44:00,69.8,65.1,30.07,SE,132,5.0,10.0,85,0.00,,,0.00,meteohub,2013-01-13 07:44:00,
2013-01-13 02:49:00,69.6,64.9,30.07,SE,138,5.0,9.0,85,0.00,,,0.00,meteohub,2013-01-13 07:49:00,
2013-01-13 02:54:00,69.6,64.9,30.07,SE,130,4.0,10.0,85,0.00,,,0.00,meteohub,2013-01-13 07:54:00,
2013-01-13 03:00:00,69.6,64.9,30.07,SE,144,3.0,10.0,85,0.00,,,0.00,meteohub,2013-01-13 08:00:00,
2013-01-13 03:05:00,69.6,64.9,30.07,East,99,5.0,10.0,85,0.00,,,0.00,meteohub,2013-01-13 08:05:00,
2013-01-13 03:10:00,69.6,64.9,30.07,SE,132,3.0,9.0,85,0.00,,,0.00,meteohub,2013-01-13 08:10:00,
2013-01-13 03:15:00,69.6,64.9,30.06,SE,128,3.0,9.0,85,0.00,,,0.00,meteohub,2013-01-13 08:15:00,
2013-01-13 03:20:00,69.4,65.1,30.06,South,171,3.0,9.0,86,0.00,,,0.00,meteohub,2013-01-13 08:20:00,
2013-01-13 03:25:00,69.3,64.9,30.06,SE,137,4.0,10.0,86,0.00,,,0.00,meteohub,2013-01-13 08:25:00,
2013-01-13 03:30:00,69.3,64.9,30.06,South,172,1.0,10.0,86,0.00,,,0.00,meteohub,2013-01-13 08:30:00,
2013-01-13 03:35:00,69.1,64.8,30.05,ESE,115,3.0,10.0,86,0.00,,,0.00,meteohub,2013-01-13 08:35:00,
2013-01-13 03:40:00,69.1,64.8,30.05,SE,128,3.0,9.0,86,0.00,,,0.00,meteohub,2013-01-13 08:40:00,
2013-01-13 03:45:00,68.9,64.9,30.05,ESE,107,7.0,9.0,87,0.00,,,0.00,meteohub,2013-01-13 08:45:00,
2013-01-13 03:50:00,68.7,64.8,30.05,East,100,6.0,9.0,87,0.00,,,0.00,meteohub,2013-01-13 08:50:00,
2013-01-13 03:56:00,68.7,64.8,30.05,SE,124,4.0,9.0,87,0.00,,,0.00,meteohub,2013-01-13 08:56:00,
2013-01-13 04:01:00,68.7,64.8,30.05,SE,125,3.0,9.0,87,0.00,,,0.00,meteohub,2013-01-13 09:01:00,
2013-01-13 04:06:00,68.7,64.8,30.05,ESE,111,7.0,9.0,87,0.00,,,0.00,meteohub,2013-01-13 09:06:00,
2013-01-13 04:11:00,68.7,64.8,30.05,SE,128,3.0,10.0,87,0.00,,,0.00,meteohub,2013-01-13 09:11:00,
2013-01-13 04:16:00,68.7,64.8,30.04,SSE,156,2.0,10.0,87,0.00,,,0.00,meteohub,2013-01-13 09:16:00,
2013-01-13 04:21:00,68.7,64.8,30.05,SE,136,4.0,10.0,87,0.00,,,0.00,meteohub,2013-01-13 09:21:00,
2013-01-13 04:26:00,68.5,64.6,30.05,South,169,4.0,8.0,87,0.00,,,0.00,meteohub,2013-01-13 09:26:00,
2013-01-13 04:31:00,68.4,64.4,30.04,SSE,157,4.0,8.0,87,0.00,,,0.00,meteohub,2013-01-13 09:31:00,
2013-01-13 04:36:00,68.4,64.6,30.04,SE,145,3.0,8.0,88,0.00,,,0.00,meteohub,2013-01-13 09:36:00,
2013-01-13 04:41:00,68.2,64.4,30.04,SSW,196,2.0,9.0,88,0.00,,,0.00,meteohub,2013-01-13 09:41:00,
2013-01-13 04:46:00,67.8,64.2,30.04,SE,128,2.0,9.0,88,0.00,,,0.00,meteohub,2013-01-13 09:46:00,
2013-01-13 04:51:00,67.8,64.2,30.04,SE,140,4.0,8.0,88,0.00,,,0.00,meteohub,2013-01-13 09:51:00,
2013-01-13 04:56:00,67.6,64.2,30.05,SSE,165,2.0,8.0,89,0.00,,,0.00,meteohub,2013-01-13 09:56:00,
2013-01-13 05:01:00,67.6,64.2,30.04,South,180,2.0,8.0,89,0.00,,,0.00,meteohub,2013-01-13 10:01:00,
2013-01-13 05:07:00,67.5,64.4,30.04,SE,146,1.0,8.0,90,0.00,,,0.00,meteohub,2013-01-13 10:07:00,
2013-01-13 05:12:00,67.3,64.2,30.04,ENE,78,1.0,8.0,90,0.00,,,0.00,meteohub,2013-01-13 10:12:00,
2013-01-13 05:17:00,67.1,64.0,30.04,South,170,2.0,7.0,90,0.00,,,0.00,meteohub,2013-01-13 10:17:00,
2013-01-13 05:22:00,66.9,64.2,30.04,SE,131,5.0,8.0,91,0.00,,,0.00,meteohub,2013-01-13 10:22:00,
2013-01-13 05:27:00,66.9,64.2,30.04,ESE,107,5.0,8.0,91,0.00,,,0.00,meteohub,2013-01-13 10:27:00,
2013-01-13 05:32:00,66.7,64.0,30.04,SE,125,4.0,8.0,91,0.00,,,0.00,meteohub,2013-01-13 10:32:00,
2013-01-13 05:37:00,66.7,64.0,30.04,ESE,117,7.0,7.0,91,0.00,,,0.00,meteohub,2013-01-13 10:37:00,
2013-01-13 05:42:00,66.7,64.0,30.04,ESE,116,2.0,7.0,91,0.00,,,0.00,meteohub,2013-01-13 10:42:00,
2013-01-13 05:47:00,66.7,64.0,30.04,SE,130,3.0,10.0,91,0.00,,,0.00,meteohub,2013-01-13 10:47:00,
2013-01-13 05:52:00,66.7,64.0,30.04,SE,127,5.0,10.0,91,0.00,,,0.00,meteohub,2013-01-13 10:52:00,
2013-01-13 05:57:00,66.7,64.0,30.04,ESE,119,5.0,8.0,91,0.00,,,0.00,meteohub,2013-01-13 10:57:00,
2013-01-13 06:02:00,66.7,64.4,30.04,South,184,2.0,8.0,92,0.00,,,0.00,meteohub,2013-01-13 11:02:00,
2013-01-13 06:07:00,66.7,64.4,30.04,ESE,114,4.0,8.0,92,0.00,,,0.00,meteohub,2013-01-13 11:07:00,
2013-01-13 06:12:00,66.7,64.4,30.04,ESE,119,2.0,8.0,92,0.00,,,0.00,meteohub,2013-01-13 11:12:00,
2013-01-13 06:17:00,66.6,64.2,30.04,SE,131,3.0,7.0,92,0.00,,,0.00,meteohub,2013-01-13 11:17:00,
2013-01-13 06:22:00,66.7,64.4,30.04,ESE,121,7.0,7.0,92,0.00,,,0.00,meteohub,2013-01-13 11:22:00,
2013-01-13 06:27:00,66.6,64.2,30.04,SE,138,3.0,9.0,92,0.00,,,0.00,meteohub,2013-01-13 11:27:00,
2013-01-13 06:32:00,66.6,64.2,30.04,SE,128,4.0,9.0,92,0.00,,,0.00,meteohub,2013-01-13 11:32:00,
2013-01-13 06:37:00,66.6,64.2,30.05,SE,126,2.0,9.0,92,0.00,,,0.00,meteohub,2013-01-13 11:37:00,
2013-01-13 06:42:00,66.4,64.0,30.05,SSE,157,2.0,7.0,92,0.00,,,0.00,meteohub,2013-01-13 11:42:00,
2013-01-13 06:47:00,66.4,64.0,30.04,SE,126,1.0,7.0,92,0.00,,,0.00,meteohub,2013-01-13 11:47:00,
2013-01-13 06:52:00,66.4,64.0,30.04,ESE,113,5.0,7.0,92,0.00,,,0.00,meteohub,2013-01-13 11:52:00,
2013-01-13 06:57:00,66.2,63.9,30.04,ESE,117,4.0,7.0,92,0.00,,,0.00,meteohub,2013-01-13 11:57:00,
2013-01-13 07:02:00,66.2,63.9,30.04,SE,126,4.0,7.0,92,0.00,,,0.00,meteohub,2013-01-13 12:02:00,
2013-01-13 07:07:00,66.0,63.7,30.05,ESE,108,3.0,7.0,92,0.00,,,0.00,meteohub,2013-01-13 12:07:00,
2013-01-13 07:12:00,66.0,63.9,30.05,SE,134,6.0,7.0,93,0.00,,,0.00,meteohub,2013-01-13 12:12:00,
2013-01-13 07:17:00,66.0,63.9,30.04,SE,126,2.0,7.0,93,0.00,,,0.00,meteohub,2013-01-13 12:17:00,
2013-01-13 07:22:00,66.0,63.9,30.04,ESE,121,2.0,8.0,93,0.00,,,0.00,meteohub,2013-01-13 12:22:00,
2013-01-13 07:27:00,66.0,63.9,30.04,SE,138,4.0,8.0,93,0.00,,,0.00,meteohub,2013-01-13 12:27:00,
2013-01-13 07:32:00,66.0,63.9,30.04,SSE,148,4.0,10.0,93,0.00,,,0.00,meteohub,2013-01-13 12:32:00,
2013-01-13 07:37:00,66.0,63.9,30.05,ESE,113,3.0,10.0,93,0.00,,,0.00,meteohub,2013-01-13 12:37:00,
2013-01-13 07:42:00,66.2,64.0,30.05,SSE,155,3.0,10.0,93,0.00,,,0.00,meteohub,2013-01-13 12:42:00,
2013-01-13 07:47:00,66.4,64.2,30.05,ESE,115,4.0,10.0,93,0.00,,,0.00,meteohub,2013-01-13 12:47:00,
2013-01-13 07:52:00,66.4,64.2,30.06,ESE,118,1.0,10.0,93,0.00,,,0.00,meteohub,2013-01-13 12:52:00,
2013-01-13 07:57:00,66.7,64.4,30.06,South,171,4.0,7.0,92,0.00,,,0.00,meteohub,2013-01-13 12:57:00,
2013-01-13 08:02:00,66.9,64.6,30.06,ESE,123,2.0,8.0,92,0.00,,,0.00,meteohub,2013-01-13 13:02:00,
2013-01-13 08:07:00,67.3,64.6,30.06,ESE,105,3.0,8.0,91,0.00,,,0.00,meteohub,2013-01-13 13:07:00,
2013-01-13 08:12:00,67.6,64.6,30.07,SE,127,4.0,9.0,90,0.01,,,0.01,meteohub,2013-01-13 13:12:00,
2013-01-13 08:17:00,67.8,64.4,30.08,SSE,165,3.0,9.0,89,0.01,,,0.01,meteohub,2013-01-13 13:17:00,
2013-01-13 08:22:00,68.0,64.6,30.09,South,170,2.0,9.0,89,0.01,,,0.01,meteohub,2013-01-13 13:22:00,
2013-01-13 08:27:00,68.2,64.8,30.09,ESE,121,4.0,9.0,89,0.01,,,0.01,meteohub,2013-01-13 13:27:00,
2013-01-13 08:32:00,68.5,64.8,30.10,ESE,122,3.0,7.0,88,0.01,,,0.01,meteohub,2013-01-13 13:32:00,
2013-01-13 08:37:00,69.1,65.3,30.10,ESE,122,3.0,7.0,88,0.01,,,0.01,meteohub,2013-01-13 13:37:00,
2013-01-13 08:42:00,69.4,65.5,30.10,South,183,3.0,7.0,87,0.01,,,0.01,meteohub,2013-01-13 13:42:00,
2013-01-13 08:47:00,69.8,65.5,30.11,East,90,7.0,7.0,86,0.01,,,0.01,meteohub,2013-01-13 13:47:00,
2013-01-13 08:52:00,70.0,65.7,30.11,SE,145,3.0,9.0,86,0.01,,,0.01,meteohub,2013-01-13 13:52:00,
2013-01-13 08:57:00,70.3,65.7,30.11,SSE,161,4.0,9.0,85,0.01,,,0.01,meteohub,2013-01-13 13:57:00,
2013-01-13 09:02:00,70.5,65.5,30.11,SSE,147,4.0,9.0,84,0.01,,,0.01,meteohub,2013-01-13 14:02:00,
2013-01-13 09:07:00,70.5,65.5,30.12,SE,125,4.0,10.0,84,0.00,,,0.01,meteohub,2013-01-13 14:07:00,
2013-01-13 09:12:00,71.1,66.0,30.12,SE,136,3.0,11.0,84,0.00,,,0.01,meteohub,2013-01-13 14:12:00,
2013-01-13 09:17:00,71.2,65.8,30.12,SE,125,4.0,11.0,83,0.00,,,0.01,meteohub,2013-01-13 14:17:00,
2013-01-13 09:22:00,71.4,66.0,30.13,SE,137,3.0,11.0,83,0.00,,,0.01,meteohub,2013-01-13 14:22:00,
2013-01-13 09:27:00,72.1,66.4,30.13,East,98,6.0,9.0,82,0.00,,,0.01,meteohub,2013-01-13 14:27:00,
2013-01-13 09:32:00,72.3,66.6,30.13,SE,126,4.0,9.0,82,0.00,,,0.01,meteohub,2013-01-13 14:32:00,
2013-01-13 09:37:00,72.5,66.7,30.14,South,175,4.0,9.0,82,0.00,,,0.01,meteohub,2013-01-13 14:37:00,
2013-01-13 09:42:00,73.0,66.9,30.14,SSE,166,3.0,8.0,81,0.00,,,0.01,meteohub,2013-01-13 14:42:00,
2013-01-13 09:47:00,73.0,66.6,30.14,SE,138,5.0,9.0,80,0.00,,,0.01,meteohub,2013-01-13 14:47:00,
2013-01-13 09:52:00,73.4,66.9,30.14,South,189,4.0,11.0,80,0.00,,,0.01,meteohub,2013-01-13 14:52:00,
2013-01-13 09:57:00,73.0,66.6,30.15,SE,144,5.0,12.0,80,0.00,,,0.01,meteohub,2013-01-13 14:57:00,
2013-01-13 10:02:00,73.2,66.7,30.15,ESE,114,9.0,12.0,80,0.00,,,0.01,meteohub,2013-01-13 15:02:00,
2013-01-13 10:07:00,73.6,67.1,30.15,ESE,121,9.0,12.0,80,0.00,,,0.01,meteohub,2013-01-13 15:07:00,
2013-01-13 10:12:00,73.8,67.3,30.15,SSE,157,3.0,11.0,80,0.00,,,0.01,meteohub,2013-01-13 15:12:00,
2013-01-13 10:17:00,74.1,67.1,30.15,ESE,121,9.0,11.0,79,0.00,,,0.01,meteohub,2013-01-13 15:17:00,
2013-01-13 10:22:00,74.7,67.3,30.14,South,187,5.0,10.0,78,0.00,,,0.01,meteohub,2013-01-13 15:22:00,
2013-01-13 10:27:00,74.7,67.3,30.14,SSE,148,4.0,10.0,78,0.00,,,0.01,meteohub,2013-01-13 15:27:00,
2013-01-13 10:32:00,74.8,66.7,30.14,South,169,7.0,10.0,76,0.00,,,0.01,meteohub,2013-01-13 15:32:00,
2013-01-13 10:37:00,74.7,66.9,30.14,South,171,6.0,10.0,77,0.00,,,0.01,meteohub,2013-01-13 15:37:00,
2013-01-13 10:42:00,74.5,66.7,30.14,SSE,163,4.0,10.0,77,0.00,,,0.01,meteohub,2013-01-13 15:42:00,
2013-01-13 10:47:00,74.8,67.5,30.14,SSE,163,3.0,10.0,78,0.00,,,0.01,meteohub,2013-01-13 15:47:00,
2013-01-13 10:52:00,75.0,66.9,30.14,South,179,10.0,10.0,76,0.00,,,0.01,meteohub,2013-01-13 15:52:00,
2013-01-13 10:57:00,75.6,67.5,30.14,ESE,119,9.0,11.0,76,0.00,,,0.01,meteohub,2013-01-13 15:57:00,
2013-01-13 11:02:00,76.1,67.3,30.13,ESE,120,5.0,13.0,74,0.00,,,0.01,meteohub,2013-01-13 16:02:00,
2013-01-13 11:07:00,75.9,66.6,30.13,ESE,122,7.0,13.0,73,0.00,,,0.01,meteohub,2013-01-13 16:07:00,
2013-01-13 11:12:00,76.3,66.6,30.13,SSW,200,7.0,13.0,72,0.00,,,0.01,meteohub,2013-01-13 16:12:00,
2013-01-13 11:17:00,75.9,66.2,30.12,SE,130,4.0,14.0,72,0.00,,,0.01,meteohub,2013-01-13 16:17:00,
2013-01-13 11:22:00,75.9,66.2,30.12,SE,132,6.0,14.0,72,0.00,,,0.01,meteohub,2013-01-13 16:22:00,
2013-01-13 11:27:00,76.3,66.2,30.12,South,169,10.0,12.0,71,0.00,,,0.01,meteohub,2013-01-13 16:27:00,
2013-01-13 11:32:00,76.3,66.2,30.11,South,190,7.0,14.0,71,0.00,,,0.01,meteohub,2013-01-13 16:32:00,
2013-01-13 11:37:00,76.3,66.2,30.11,ESE,121,8.0,14.0,71,0.00,,,0.01,meteohub,2013-01-13 16:37:00,
2013-01-13 11:42:00,76.5,66.4,30.11,South,190,7.0,14.0,71,0.00,,,0.01,meteohub,2013-01-13 16:42:00,
2013-01-13 11:47:00,76.5,66.4,30.10,SSE,165,5.0,14.0,71,0.00,,,0.01,meteohub,2013-01-13 16:47:00,
2013-01-13 11:52:00,76.8,66.7,30.10,East,88,6.0,14.0,71,0.00,,,0.01,meteohub,2013-01-13 16:52:00,
2013-01-13 11:57:00,77.2,66.2,30.10,South,187,5.0,12.0,69,0.00,,,0.01,meteohub,2013-01-13 16:57:00,
2013-01-13 12:02:00,77.4,66.0,30.10,SSE,156,7.0,12.0,68,0.00,,,0.01,meteohub,2013-01-13 17:02:00,
2013-01-13 12:07:00,77.9,66.6,30.10,SE,145,5.0,12.0,68,0.00,,,0.01,meteohub,2013-01-13 17:07:00,
2013-01-13 12:12:00,77.5,66.6,30.10,South,172,3.0,9.0,69,0.00,,,0.01,meteohub,2013-01-13 17:12:00,
2013-01-13 12:17:00,77.4,66.0,30.10,South,169,3.0,8.0,68,0.00,,,0.01,meteohub,2013-01-13 17:17:00,
2013-01-13 12:22:00,77.4,66.0,30.09,ESE,110,8.0,9.0,68,0.00,,,0.01,meteohub,2013-01-13 17:22:00,
2013-01-13 12:27:00,77.4,66.0,30.09,SSE,165,3.0,10.0,68,0.00,,,0.01,meteohub,2013-01-13 17:27:00,
2013-01-13 12:32:00,77.0,65.1,30.09,ESE,103,8.0,10.0,67,0.00,,,0.01,meteohub,2013-01-13 17:32:00,
2013-01-13 12:37:00,77.2,65.3,30.08,SSE,166,6.0,10.0,67,0.00,,,0.01,meteohub,2013-01-13 17:37:00,
2013-01-13 12:42:00,77.4,66.0,30.08,ESE,123,4.0,11.0,68,0.00,,,0.01,meteohub,2013-01-13 17:42:00,
2013-01-13 12:47:00,77.2,65.8,30.08,SE,129,4.0,11.0,68,0.00,,,0.01,meteohub,2013-01-13 17:47:00,
2013-01-13 12:52:00,77.7,65.8,30.07,SSW,193,3.0,11.0,67,0.00,,,0.01,meteohub,2013-01-13 17:52:00,
2013-01-13 12:57:00,77.5,65.7,30.07,SE,126,5.0,9.0,67,0.00,,,0.01,meteohub,2013-01-13 17:57:00,
2013-01-13 13:02:00,78.4,66.2,30.07,South,184,2.0,10.0,66,0.00,,,0.01,meteohub,2013-01-13 18:02:00,
2013-01-13 13:07:00,78.3,66.0,30.06,East,96,6.0,10.0,66,0.00,,,0.01,meteohub,2013-01-13 18:07:00,
2013-01-13 13:13:00,78.4,66.2,30.06,SE,143,1.0,10.0,66,0.00,,,0.01,meteohub,2013-01-13 18:13:00,
2013-01-13 13:18:00,79.0,66.6,30.06,SE,132,5.0,10.0,66,0.00,,,0.01,meteohub,2013-01-13 18:18:00,
2013-01-13 13:23:00,78.6,66.4,30.06,South,185,4.0,10.0,66,0.00,,,0.01,meteohub,2013-01-13 18:23:00,
2013-01-13 13:28:00,78.3,66.0,30.06,ESE,117,5.0,9.0,66,0.00,,,0.01,meteohub,2013-01-13 18:28:00,
2013-01-13 13:33:00,78.4,65.7,30.06,South,169,6.0,10.0,65,0.00,,,0.01,meteohub,2013-01-13 18:33:00,
2013-01-13 13:38:00,78.4,66.2,30.06,South,171,4.0,11.0,66,0.00,,,0.01,meteohub,2013-01-13 18:38:00,
2013-01-13 13:43:00,78.6,65.8,30.05,South,170,5.0,11.0,65,0.00,,,0.01,meteohub,2013-01-13 18:43:00,
2013-01-13 13:48:00,78.3,66.0,30.05,South,173,0.0,11.0,66,0.00,,,0.01,meteohub,2013-01-13 18:48:00,
2013-01-13 13:53:00,78.1,65.3,30.06,South,177,3.0,10.0,65,0.00,,,0.01,meteohub,2013-01-13 18:53:00,
2013-01-13 13:58:00,77.7,64.9,30.06,South,172,4.0,10.0,65,0.00,,,0.01,meteohub,2013-01-13 18:58:00,
2013-01-13 14:03:00,77.7,64.9,30.05,South,171,3.0,9.0,65,0.00,,,0.01,meteohub,2013-01-13 19:03:00,
2013-01-13 14:09:00,77.7,64.6,30.06,SSW,207,5.0,9.0,64,0.00,,,0.01,meteohub,2013-01-13 19:09:00,
2013-01-13 14:14:00,78.1,64.9,30.06,South,183,2.0,10.0,64,0.00,,,0.01,meteohub,2013-01-13 19:14:00,
2013-01-13 14:19:00,78.3,64.2,30.05,SE,138,6.0,10.0,62,0.00,,,0.01,meteohub,2013-01-13 19:19:00,
2013-01-13 14:24:00,78.4,63.9,30.05,South,180,5.0,10.0,61,0.00,,,0.01,meteohub,2013-01-13 19:24:00,
2013-01-13 14:29:00,79.0,63.9,30.05,South,186,8.0,10.0,60,0.00,,,0.01,meteohub,2013-01-13 19:29:00,
2013-01-13 14:34:00,79.0,64.4,30.05,South,187,4.0,11.0,61,0.00,,,0.01,meteohub,2013-01-13 19:34:00,
2013-01-13 14:39:00,79.0,63.9,30.05,SE,139,4.0,11.0,60,0.00,,,0.01,meteohub,2013-01-13 19:39:00,
2013-01-13 14:44:00,78.8,63.3,30.05,South,171,4.0,11.0,59,0.00,,,0.01,meteohub,2013-01-13 19:44:00,
2013-01-13 14:49:00,78.8,63.7,30.06,SSE,163,2.0,10.0,60,0.00,,,0.01,meteohub,2013-01-13 19:49:00,
2013-01-13 14:54:00,78.6,63.1,30.06,SSE,164,2.0,10.0,59,0.00,,,0.01,meteohub,2013-01-13 19:54:00,
2013-01-13 14:59:00,78.6,62.6,30.06,SSE,166,5.0,9.0,58,0.00,,,0.01,meteohub,2013-01-13 19:59:00,
2013-01-13 15:04:00,79.0,63.9,30.06,SSW,207,1.0,8.0,60,0.00,,,0.01,meteohub,2013-01-13 20:04:00,
2013-01-13 15:09:00,79.0,63.9,30.06,SE,137,3.0,8.0,60,0.00,,,0.01,meteohub,2013-01-13 20:09:00,
2013-01-13 15:14:00,79.0,63.5,30.05,SSE,161,2.0,8.0,59,0.00,,,0.01,meteohub,2013-01-13 20:14:00,
2013-01-13 15:20:00,79.0,63.5,30.05,South,182,4.0,7.0,59,0.00,,,0.01,meteohub,2013-01-13 20:20:00,
2013-01-13 15:25:00,78.6,63.5,30.05,SSW,198,5.0,7.0,60,0.00,,,0.01,meteohub,2013-01-13 20:25:00,
2013-01-13 15:30:00,78.4,63.9,30.05,South,180,2.0,7.0,61,0.00,,,0.01,meteohub,2013-01-13 20:30:00,
2013-01-13 15:35:00,78.1,64.9,30.05,SSW,207,2.0,8.0,64,0.00,,,0.01,meteohub,2013-01-13 20:35:00,
2013-01-13 15:40:00,78.1,65.3,30.06,SW,228,6.0,8.0,65,0.00,,,0.01,meteohub,2013-01-13 20:40:00,
2013-01-13 15:45:00,77.9,65.1,30.06,SSW,204,2.0,7.0,65,0.00,,,0.01,meteohub,2013-01-13 20:45:00,
2013-01-13 15:50:00,77.7,64.9,30.06,SW,223,4.0,8.0,65,0.00,,,0.01,meteohub,2013-01-13 20:50:00,
2013-01-13 15:55:00,77.5,65.3,30.06,South,180,4.0,8.0,66,0.00,,,0.01,meteohub,2013-01-13 20:55:00,
2013-01-13 16:00:00,77.4,65.1,30.06,SW,233,4.0,7.0,66,0.00,,,0.01,meteohub,2013-01-13 21:00:00,
2013-01-13 16:05:00,77.2,64.9,30.06,South,180,1.0,8.0,66,0.00,,,0.01,meteohub,2013-01-13 21:05:00,
2013-01-13 16:10:00,77.2,64.9,30.06,SSW,192,1.0,8.0,66,0.00,,,0.01,meteohub,2013-01-13 21:10:00,
2013-01-13 16:15:00,77.0,64.8,30.07,South,175,3.0,7.0,66,0.00,,,0.01,meteohub,2013-01-13 21:15:00,
2013-01-13 16:21:00,76.6,64.9,30.06,SSW,209,4.0,5.0,67,0.00,,,0.01,meteohub,2013-01-13 21:21:00,
2013-01-13 16:26:00,76.6,64.9,30.07,South,182,2.0,5.0,67,0.00,,,0.01,meteohub,2013-01-13 21:26:00,
2013-01-13 16:31:00,76.5,64.8,30.07,SSW,206,1.0,6.0,67,0.00,,,0.01,meteohub,2013-01-13 21:31:00,
2013-01-13 16:36:00,76.3,64.6,30.07,SSW,207,5.0,6.0,67,0.00,,,0.01,meteohub,2013-01-13 21:36:00,
2013-01-13 16:41:00,76.1,64.4,30.07,SW,223,4.0,6.0,67,0.00,,,0.01,meteohub,2013-01-13 21:41:00,
2013-01-13 16:46:00,76.1,64.4,30.07,SSW,210,4.0,5.0,67,0.00,,,0.01,meteohub,2013-01-13 21:46:00,
2013-01-13 16:51:00,75.9,64.2,30.07,South,188,3.0,5.0,67,0.00,,,0.01,meteohub,2013-01-13 21:51:00,
2013-01-13 16:56:00,75.9,64.2,30.07,SSE,167,3.0,5.0,67,0.00,,,0.01,meteohub,2013-01-13 21:56:00,
2013-01-13 17:01:00,75.9,64.6,30.07,South,188,3.0,7.0,68,0.00,,,0.01,meteohub,2013-01-13 22:01:00,
2013-01-13 17:06:00,75.7,64.8,30.07,SSW,198,1.0,7.0,69,0.00,,,0.01,meteohub,2013-01-13 22:06:00,
2013-01-13 17:11:00,75.6,64.8,30.07,SSW,199,2.0,6.0,69,0.00,,,0.01,meteohub,2013-01-13 22:11:00,
2013-01-13 17:16:00,75.4,64.9,30.07,SSW,199,1.0,5.0,70,0.00,,,0.01,meteohub,2013-01-13 22:16:00,
2013-01-13 17:21:00,75.2,64.8,30.07,SSW,199,2.0,5.0,70,0.00,,,0.01,meteohub,2013-01-13 22:21:00,
2013-01-13 17:27:00,75.0,64.9,30.07,SSW,198,2.0,5.0,71,0.00,,,0.01,meteohub,2013-01-13 22:27:00,
2013-01-13 17:32:00,74.8,64.0,30.07,South,171,4.0,7.0,69,0.00,,,0.01,meteohub,2013-01-13 22:32:00,
2013-01-13 17:37:00,74.8,64.0,30.07,SSW,194,5.0,8.0,69,0.00,,,0.01,meteohub,2013-01-13 22:37:00,
2013-01-13 17:42:00,74.5,64.0,30.07,South,173,1.0,8.0,70,0.00,,,0.01,meteohub,2013-01-13 22:42:00,
2013-01-13 17:47:00,74.3,64.2,30.07,South,172,2.0,8.0,71,0.00,,,0.01,meteohub,2013-01-13 22:47:00,
2013-01-13 17:52:00,73.9,63.9,30.07,SSW,209,2.0,8.0,71,0.00,,,0.01,meteohub,2013-01-13 22:52:00,
2013-01-13 17:57:00,73.8,64.2,30.07,South,177,2.0,7.0,72,0.00,,,0.01,meteohub,2013-01-13 22:57:00,
2013-01-13 18:02:00,73.6,64.4,30.07,South,186,2.0,7.0,73,0.00,,,0.01,meteohub,2013-01-13 23:02:00,
2013-01-13 18:07:00,73.4,64.2,30.07,South,173,2.0,6.0,73,0.00,,,0.01,meteohub,2013-01-13 23:07:00,
2013-01-13 18:12:00,73.2,64.0,30.07,South,190,0.0,6.0,73,0.00,,,0.01,meteohub,2013-01-13 23:12:00,
2013-01-13 18:17:00,73.0,64.2,30.07,South,182,2.0,6.0,74,0.00,,,0.01,meteohub,2013-01-13 23:17:00,
2013-01-13 18:22:00,73.0,64.2,30.07,South,186,1.0,6.0,74,0.00,,,0.01,meteohub,2013-01-13 23:22:00,
2013-01-13 18:27:00,72.9,64.0,30.07,South,187,2.0,6.0,74,0.00,,,0.01,meteohub,2013-01-13 23:27:00,
2013-01-13 18:32:00,72.7,64.2,30.07,South,182,1.0,5.0,75,0.00,,,0.01,meteohub,2013-01-13 23:32:00,
2013-01-13 18:37:00,72.7,64.2,30.07,South,181,3.0,5.0,75,0.00,,,0.01,meteohub,2013-01-13 23:37:00,
2013-01-13 18:42:00,72.3,64.4,30.07,South,180,0.0,5.0,76,0.01,,,0.02,meteohub,2013-01-13 23:42:00,
2013-01-13 18:47:00,72.1,64.2,30.07,South,180,1.0,4.0,76,0.01,,,0.02,meteohub,2013-01-13 23:47:00,
2013-01-13 18:52:00,72.1,64.6,30.07,South,180,2.0,4.0,77,0.01,,,0.02,meteohub,2013-01-13 23:52:00,
2013-01-13 18:57:00,72.0,64.8,30.07,South,180,1.0,4.0,78,0.01,,,0.02,meteohub,2013-01-13 23:57:00,
2013-01-13 19:02:00,71.8,64.6,30.07,South,180,4.0,4.0,78,0.01,,,0.02,meteohub,2013-01-14 00:02:00,
2013-01-13 19:07:00,71.6,64.4,30.07,South,180,1.0,4.0,78,0.01,,,0.02,meteohub,2013-01-14 00:07:00,
2013-01-13 19:12:00,71.4,64.6,30.07,South,188,2.0,5.0,79,0.01,,,0.02,meteohub,2013-01-14 00:12:00,
2013-01-13 19:17:00,71.4,64.9,30.07,South,173,4.0,5.0,80,0.01,,,0.02,meteohub,2013-01-14 00:17:00,
2013-01-13 19:22:00,71.4,64.9,30.07,South,170,2.0,5.0,80,0.01,,,0.02,meteohub,2013-01-14 00:22:00,
2013-01-13 19:27:00,71.2,64.8,30.07,South,184,2.0,6.0,80,0.01,,,0.02,meteohub,2013-01-14 00:27:00,
2013-01-13 19:32:00,71.2,65.1,30.07,South,173,3.0,6.0,81,0.01,,,0.02,meteohub,2013-01-14 00:32:00,
2013-01-13 19:37:00,71.1,64.9,30.07,South,173,3.0,6.0,81,0.01,,,0.02,meteohub,2013-01-14 00:37:00,
2013-01-13 19:42:00,71.1,64.9,30.07,South,184,4.0,6.0,81,0.00,,,0.02,meteohub,2013-01-14 00:42:00,
2013-01-13 19:47:00,70.9,65.1,30.07,South,180,1.0,6.0,82,0.00,,,0.02,meteohub,2013-01-14 00:47:00,
2013-01-13 19:52:00,70.7,64.9,30.07,South,180,2.0,6.0,82,0.00,,,0.02,meteohub,2013-01-14 00:52:00,
2013-01-13 19:57:00,70.5,64.8,30.07,South,180,2.0,6.0,82,0.00,,,0.02,meteohub,2013-01-14 00:57:00,
2013-01-13 20:02:00,70.5,65.1,30.06,South,180,3.0,5.0,83,0.00,,,0.02,meteohub,2013-01-14 01:02:00,
2013-01-13 20:07:00,70.3,64.9,30.06,South,180,2.0,5.0,83,0.00,,,0.02,meteohub,2013-01-14 01:07:00,
2013-01-13 20:12:00,70.3,64.9,30.06,South,180,1.0,5.0,83,0.00,,,0.02,meteohub,2013-01-14 01:12:00,
2013-01-13 20:17:00,70.2,64.8,30.06,South,180,1.0,3.0,83,0.00,,,0.02,meteohub,2013-01-14 01:17:00,
2013-01-13 20:22:00,70.0,64.9,30.06,South,180,0.0,3.0,84,0.00,,,0.02,meteohub,2013-01-14 01:22:00,
2013-01-13 20:27:00,69.8,64.8,30.06,South,180,2.0,3.0,84,0.00,,,0.02,meteohub,2013-01-14 01:27:00,
2013-01-13 20:32:00,69.6,64.9,30.06,South,180,2.0,3.0,85,0.00,,,0.02,meteohub,2013-01-14 01:32:00,
2013-01-13 20:37:00,69.6,64.9,30.06,South,180,4.0,4.0,85,0.00,,,0.02,meteohub,2013-01-14 01:37:00,
2013-01-13 20:42:00,69.6,65.3,30.06,South,178,2.0,5.0,86,0.00,,,0.02,meteohub,2013-01-14 01:42:00,
2013-01-13 20:47:00,69.6,64.9,30.06,South,178,0.0,5.0,85,0.00,,,0.02,meteohub,2013-01-14 01:47:00,
2013-01-13 20:52:00,69.6,65.3,30.06,South,178,2.0,5.0,86,0.00,,,0.02,meteohub,2013-01-14 01:52:00,
2013-01-13 20:57:00,69.4,65.1,30.07,South,178,2.0,4.0,86,0.00,,,0.02,meteohub,2013-01-14 01:57:00,
2013-01-13 21:02:00,69.4,65.1,30.07,South,178,1.0,4.0,86,0.00,,,0.02,meteohub,2013-01-14 02:02:00,
2013-01-13 21:07:00,69.4,65.5,30.07,South,178,0.0,3.0,87,0.00,,,0.02,meteohub,2013-01-14 02:07:00,
2013-01-13 21:12:00,69.3,65.3,30.07,South,178,1.0,3.0,87,0.00,,,0.02,meteohub,2013-01-14 02:12:00,
2013-01-13 21:17:00,69.3,65.3,30.07,South,178,0.0,3.0,87,0.00,,,0.02,meteohub,2013-01-14 02:17:00,
2013-01-13 21:22:00,69.1,65.1,30.07,South,178,0.0,2.0,87,0.00,,,0.02,meteohub,2013-01-14 02:22:00,
2013-01-13 21:27:00,68.9,64.9,30.07,South,178,1.0,2.0,87,0.00,,,0.02,meteohub,2013-01-14 02:27:00,
2013-01-13 21:32:00,68.7,64.8,30.07,South,178,0.0,2.0,87,0.00,,,0.02,meteohub,2013-01-14 02:32:00,
2013-01-13 21:37:00,68.5,64.6,30.07,South,178,0.0,1.0,87,0.00,,,0.02,meteohub,2013-01-14 02:37:00,
2013-01-13 21:42:00,68.4,64.6,30.08,South,178,0.0,1.0,88,0.00,,,0.02,meteohub,2013-01-14 02:42:00,
2013-01-13 21:47:00,68.2,64.4,30.08,South,178,0.0,0.0,88,0.00,,,0.02,meteohub,2013-01-14 02:47:00,
2013-01-13 21:52:00,67.8,64.4,30.08,South,178,2.0,2.0,89,0.00,,,0.02,meteohub,2013-01-14 02:52:00,
2013-01-13 21:57:00,67.6,64.2,30.08,South,178,0.0,2.0,89,0.00,,,0.02,meteohub,2013-01-14 02:57:00,
2013-01-13 22:02:00,67.5,64.4,30.08,South,178,1.0,2.0,90,0.00,,,0.02,meteohub,2013-01-14 03:02:00,
2013-01-13 22:07:00,67.6,64.6,30.09,South,178,2.0,2.0,90,0.00,,,0.02,meteohub,2013-01-14 03:07:00,
2013-01-13 22:12:00,67.5,64.4,30.09,South,178,1.0,3.0,90,0.00,,,0.02,meteohub,2013-01-14 03:12:00,
2013-01-13 22:17:00,67.5,64.4,30.09,South,178,0.0,3.0,90,0.00,,,0.02,meteohub,2013-01-14 03:17:00,
2013-01-13 22:22:00,67.3,64.2,30.09,South,178,0.0,3.0,90,0.00,,,0.02,meteohub,2013-01-14 03:22:00,
2013-01-13 22:27:00,67.1,64.0,30.10,South,178,0.0,3.0,90,0.00,,,0.02,meteohub,2013-01-14 03:27:00,
2013-01-13 22:32:00,66.9,63.9,30.10,South,178,0.0,2.0,90,0.00,,,0.02,meteohub,2013-01-14 03:32:00,
2013-01-13 22:37:00,66.7,63.7,30.10,South,178,2.0,2.0,90,0.00,,,0.02,meteohub,2013-01-14 03:37:00,
2013-01-13 22:42:00,66.7,64.0,30.10,South,178,0.0,3.0,91,0.00,,,0.02,meteohub,2013-01-14 03:42:00,
2013-01-13 22:47:00,66.7,64.0,30.09,South,178,0.0,3.0,91,0.00,,,0.02,meteohub,2013-01-14 03:47:00,
2013-01-13 22:52:00,66.6,63.9,30.10,South,178,0.0,3.0,91,0.00,,,0.02,meteohub,2013-01-14 03:52:00,
2013-01-13 22:57:00,66.6,63.9,30.10,South,178,0.0,2.0,91,0.00,,,0.02,meteohub,2013-01-14 03:57:00,
2013-01-13 23:02:00,66.4,63.7,30.10,South,178,0.0,2.0,91,0.00,,,0.02,meteohub,2013-01-14 04:02:00,
2013-01-13 23:07:00,66.4,64.0,30.10,South,178,2.0,0.0,92,0.00,,,0.02,meteohub,2013-01-14 04:07:00,
2013-01-13 23:12:00,66.4,64.0,30.10,South,178,0.0,2.0,92,0.00,,,0.02,meteohub,2013-01-14 04:12:00,
2013-01-13 23:17:00,66.4,64.0,30.10,South,178,0.0,2.0,92,0.00,,,0.02,meteohub,2013-01-14 04:17:00,
2013-01-13 23:22:00,66.2,63.9,30.10,South,178,0.0,2.0,92,0.00,,,0.02,meteohub,2013-01-14 04:22:00,
2013-01-13 23:27:00,66.0,63.7,30.10,South,178,0.0,2.0,92,0.00,,,0.02,meteohub,2013-01-14 04:27:00,
2013-01-13 23:32:00,66.0,63.9,30.10,South,178,0.0,1.0,93,0.00,,,0.02,meteohub,2013-01-14 04:32:00,
2013-01-13 23:37:00,65.8,63.5,30.10,South,178,0.0,1.0,92,0.00,,,0.02,meteohub,2013-01-14 04:37:00,
2013-01-13 23:42:00,65.7,63.3,30.10,South,178,0.0,1.0,92,0.00,,,0.02,meteohub,2013-01-14 04:42:00,
2013-01-13 23:47:00,65.7,63.3,30.10,South,178,0.0,0.0,92,0.00,,,0.02,meteohub,2013-01-14 04:47:00,
2013-01-13 23:52:00,65.5,63.1,30.10,South,178,0.0,0.0,92,0.00,,,0.02,meteohub,2013-01-14 04:52:00,
2013-01-13 23:57:00,65.5,63.3,30.10,South,178,0.0,0.0,93,0.00,,,0.02,meteohub,2013-01-14 04:57:00,